When you browse on this site, cookies collect data to enhance your experience and personalize the content and advertising you see.
Visit our Privacy Policy to learn more. By continuing to use the site, you agree to this use of cookies and data.
  • Em Portugal
  • Lista de países
  • Para 7 dias
  • Temperatura da água
  • Mapas de satélite
  • Mapa do tempo
  • Widgets de tempo
  • user-avatar
    Iniciar Sessão

    Previsão horária em Haskovo

    Hoje, 18 Junho, Terça-feira

    Tempo Temperatura Precipitação Vento Pressão Humidade
    00:00 +21°C° 0.4 mm 1 m/s 740 mmHg 83%
    01:00 +19°C° 0.4 mm 2 m/s 740 mmHg 85%
    02:00 +19°C° 0.4 mm 2 m/s 740 mmHg 87%
    03:00 +19°C° 0 mm 2 m/s 740 mmHg 88%
    04:00 +19°C° 0 mm 2 m/s 740 mmHg 89%
    05:00 +19°C° 0 mm 1 m/s 739 mmHg 89%
    06:00 +20°C° 0 mm 2 m/s 740 mmHg 84%
    07:00 +23°C° 0 mm 2 m/s 740 mmHg 79%
    08:00 +24°C° 0 mm 2 m/s 740 mmHg 74%
    09:00 +26°C° 0 mm 2 m/s 741 mmHg 65%
    10:00 +27°C° 0 mm 3 m/s 741 mmHg 56%
    11:00 +29°C° 0 mm 3 m/s 741 mmHg 48%
    12:00 +30°C° 0 mm 3 m/s 741 mmHg 45%
    13:00 +31°C° 0 mm 3 m/s 740 mmHg 43%
    14:00 +31°C° 0 mm 3 m/s 740 mmHg 40%
    15:00 +30°C° 0 mm 4 m/s 740 mmHg 45%
    16:00 +30°C° 0 mm 4 m/s 739 mmHg 50%
    17:00 +29°C° 0 mm 4 m/s 739 mmHg 54%
    18:00 +27°C° 0.5 mm 3 m/s 739 mmHg 61%
    19:00 +25°C° 0.5 mm 3 m/s 739 mmHg 68%
    20:00 +24°C° 0.5 mm 2 m/s 739 mmHg 75%
    21:00 +23°C° 0.3 mm 2 m/s 740 mmHg 76%
    22:00 +22°C° 0.3 mm 1 m/s 740 mmHg 76%
    23:00 +19°C° 0.3 mm 0 m/s 740 mmHg 77%

    Amanhã, 19 Junho, Quarta-feira

    Tempo Temperatura Precipitação Vento Pressão Humidade
    00:00 +19°C° 0 mm 0 m/s 740 mmHg 78%
    01:00 +18°C° 0 mm 0 m/s 740 mmHg 79%
    02:00 +20°C° 0 mm 1 m/s 740 mmHg 80%
    03:00 +20°C° 0 mm 1 m/s 739 mmHg 82%
    04:00 +19°C° 0 mm 1 m/s 739 mmHg 83%
    05:00 +19°C° 0 mm 1 m/s 739 mmHg 85%
    06:00 +20°C° 0 mm 1 m/s 739 mmHg 81%
    07:00 +22°C° 0 mm 1 m/s 740 mmHg 76%
    08:00 +24°C° 0 mm 1 m/s 740 mmHg 71%
    09:00 +25°C° 0 mm 2 m/s 740 mmHg 63%
    10:00 +27°C° 0 mm 2 m/s 740 mmHg 55%
    11:00 +28°C° 0 mm 3 m/s 740 mmHg 47%
    12:00 +29°C° 0 mm 3 m/s 740 mmHg 47%
    13:00 +29°C° 0 mm 3 m/s 739 mmHg 46%
    14:00 +30°C° 0 mm 2 m/s 739 mmHg 45%
    15:00 +30°C° 0 mm 2 m/s 739 mmHg 46%
    16:00 +29°C° 0 mm 2 m/s 738 mmHg 47%
    17:00 +29°C° 0 mm 2 m/s 738 mmHg 48%
    18:00 +27°C° 0 mm 2 m/s 738 mmHg 52%
    19:00 +26°C° 0 mm 1 m/s 738 mmHg 57%
    20:00 +24°C° 0 mm 1 m/s 738 mmHg 61%
    21:00 +23°C° 0 mm 1 m/s 738 mmHg 63%
    22:00 +22°C° 0 mm 1 m/s 739 mmHg 65%
    23:00 +19°C° 0 mm 0 m/s 739 mmHg 67%

    Depois de amanhã, 20 Junho, Quinta-feira

    Tempo Temperatura Precipitação Vento Pressão Humidade
    00:00 +21°C° 0 mm 1 m/s 739 mmHg 68%
    01:00 +20°C° 0 mm 1 m/s 738 mmHg 70%
    02:00 +20°C° 0 mm 1 m/s 738 mmHg 71%
    03:00 +20°C° 0 mm 1 m/s 738 mmHg 72%
    04:00 +20°C° 0 mm 1 m/s 738 mmHg 73%
    05:00 +19°C° 0 mm 1 m/s 738 mmHg 74%
    06:00 +20°C° 0 mm 2 m/s 738 mmHg 70%
    07:00 +23°C° 0 mm 2 m/s 739 mmHg 65%
    08:00 +24°C° 0 mm 2 m/s 739 mmHg 61%
    09:00 +26°C° 0 mm 2 m/s 739 mmHg 56%
    10:00 +27°C° 0 mm 3 m/s 739 mmHg 51%
    11:00 +29°C° 0 mm 3 m/s 739 mmHg 46%
    12:00 +29°C° 0 mm 3 m/s 739 mmHg 42%
    13:00 +30°C° 0 mm 3 m/s 738 mmHg 38%
    14:00 +31°C° 0 mm 3 m/s 738 mmHg 34%
    15:00 +31°C° 0 mm 3 m/s 738 mmHg 36%
    16:00 +31°C° 0 mm 3 m/s 738 mmHg 38%
    17:00 +30°C° 0 mm 3 m/s 738 mmHg 41%
    18:00 +28°C° 0 mm 2 m/s 738 mmHg 50%
    19:00 +27°C° 0 mm 2 m/s 738 mmHg 60%
    20:00 +25°C° 0 mm 2 m/s 738 mmHg 69%
    21:00 +24°C° 0.2 mm 2 m/s 738 mmHg 73%
    22:00 +23°C° 0.2 mm 1 m/s 739 mmHg 76%
    23:00 +22°C° 0.2 mm 1 m/s 739 mmHg 80%

    21 Junho, Sexta-feira

    Tempo Temperatura Precipitação Vento Pressão Humidade
    00:00 +22°C° 0 mm 1 m/s 739 mmHg 81%
    01:00 +21°C° 0 mm 1 m/s 739 mmHg 82%
    02:00 +21°C° 0 mm 1 m/s 739 mmHg 83%
    03:00 +21°C° 0 mm 1 m/s 739 mmHg 83%
    04:00 +20°C° 0 mm 1 m/s 739 mmHg 83%
    05:00 +20°C° 0 mm 1 m/s 739 mmHg 84%
    06:00 +22°C° 0 mm 1 m/s 739 mmHg 77%
    07:00 +23°C° 0 mm 2 m/s 739 mmHg 70%
    08:00 +25°C° 0 mm 2 m/s 740 mmHg 63%
    09:00 +27°C° 0 mm 2 m/s 740 mmHg 58%
    10:00 +28°C° 0 mm 2 m/s 740 mmHg 53%
    11:00 +30°C° 0 mm 2 m/s 740 mmHg 48%
    12:00 +31°C° 0 mm 2 m/s 740 mmHg 45%
    13:00 +31°C° 0 mm 2 m/s 740 mmHg 42%
    14:00 +32°C° 0 mm 2 m/s 739 mmHg 39%
    15:00 +32°C° 0 mm 2 m/s 739 mmHg 39%
    16:00 +32°C° 0 mm 2 m/s 739 mmHg 40%
    17:00 +32°C° 0 mm 2 m/s 739 mmHg 40%
    18:00 +30°C° 0 mm 2 m/s 739 mmHg 46%
    19:00 +28°C° 0 mm 2 m/s 739 mmHg 52%
    20:00 +26°C° 0 mm 2 m/s 739 mmHg 59%
    21:00 +25°C° 0.1 mm 1 m/s 739 mmHg 63%
    22:00 +24°C° 0.1 mm 1 m/s 740 mmHg 67%
    23:00 +23°C° 0.1 mm 1 m/s 740 mmHg 72%

    22 Junho, Sábado

    Tempo Temperatura Precipitação Vento Pressão Humidade
    00:00 +23°C° 0.1 mm 1 m/s 740 mmHg 74%
    01:00 +22°C° 0.1 mm 1 m/s 740 mmHg 77%
    02:00 +22°C° 0.1 mm 1 m/s 740 mmHg 79%
    03:00 +21°C° 0 mm 1 m/s 740 mmHg 80%
    04:00 +21°C° 0 mm 1 m/s 740 mmHg 82%
    05:00 +21°C° 0 mm 1 m/s 740 mmHg 83%
    06:00 +23°C° 0 mm 2 m/s 740 mmHg 77%
    07:00 +24°C° 0 mm 2 m/s 740 mmHg 71%
    08:00 +26°C° 0 mm 3 m/s 741 mmHg 65%
    09:00 +28°C° 0 mm 3 m/s 741 mmHg 59%
    10:00 +30°C° 0 mm 3 m/s 741 mmHg 53%
    11:00 +31°C° 0 mm 3 m/s 741 mmHg 47%
    12:00 +33°C° 0 mm 3 m/s 741 mmHg 43%
    13:00 +34°C° 0 mm 2 m/s 741 mmHg 40%
    14:00 +35°C° 0 mm 2 m/s 741 mmHg 36%
    15:00 +35°C° 0 mm 2 m/s 740 mmHg 37%
    16:00 +34°C° 0 mm 2 m/s 740 mmHg 38%
    17:00 +34°C° 0 mm 2 m/s 740 mmHg 39%
    18:00 +31°C° 0 mm 2 m/s 740 mmHg 44%
    19:00 +30°C° 0 mm 2 m/s 740 mmHg 50%
    20:00 +28°C° 0 mm 2 m/s 741 mmHg 56%
    21:00 +27°C° 0.1 mm 1 m/s 741 mmHg 61%
    22:00 +25°C° 0.1 mm 1 m/s 741 mmHg 66%
    23:00 +24°C° 0.1 mm 1 m/s 741 mmHg 70%

    23 Junho, Domingo

    Tempo Temperatura Precipitação Vento Pressão Humidade
    00:00 +24°C° 0 mm 1 m/s 741 mmHg 72%
    01:00 +23°C° 0 mm 1 m/s 741 mmHg 74%
    02:00 +23°C° 0 mm 1 m/s 741 mmHg 76%
    03:00 +22°C° 0 mm 1 m/s 741 mmHg 77%
    04:00 +22°C° 0 mm 1 m/s 741 mmHg 78%
    05:00 +22°C° 0 mm 1 m/s 741 mmHg 80%
    06:00 +24°C° 0 mm 1 m/s 741 mmHg 74%
    07:00 +25°C° 0 mm 1 m/s 741 mmHg 68%
    08:00 +27°C° 0 mm 2 m/s 742 mmHg 62%
    09:00 +29°C° 0 mm 2 m/s 742 mmHg 56%
    10:00 +30°C° 0 mm 2 m/s 742 mmHg 51%
    11:00 +32°C° 0 mm 2 m/s 742 mmHg 45%
    12:00 +34°C° 0 mm 2 m/s 742 mmHg 41%
    13:00 +35°C° 0 mm 2 m/s 742 mmHg 37%
    14:00 +36°C° 0 mm 2 m/s 741 mmHg 33%
    15:00 +36°C° 0 mm 2 m/s 741 mmHg 33%
    16:00 +36°C° 0 mm 2 m/s 741 mmHg 33%
    17:00 +36°C° 0 mm 2 m/s 741 mmHg 32%
    18:00 +32°C° 0 mm 2 m/s 741 mmHg 40%
    19:00 +30°C° 0 mm 1 m/s 741 mmHg 48%
    20:00 +28°C° 0 mm 1 m/s 741 mmHg 55%
    21:00 +27°C° 0.2 mm 1 m/s 741 mmHg 59%
    22:00 +26°C° 0.2 mm 1 m/s 741 mmHg 63%
    23:00 +25°C° 0.2 mm 2 m/s 742 mmHg 67%
    Mostrar mais